Regional Weather Roundup
Issued by NWS

Home | Current Version | Previous Version | Graphics & Text | Print | Product List | Glossary On
Versions: 1 2 3 4 5 6 7 8 9 10 11 12 13 14 15 16 17 18 19 20 21 22 23 24 25 26 27 28 29 30 31 32 33 34 35 36 37 38 39 40 41 42 43 44 45 46 47 48 49 50
000
ASUS43 KLOT 241609
RWRIL

ILLINOIS REGIONAL WEATHER ROUNDUP
NATIONAL WEATHER SERVICE CHICAGO/ROMEOVILLE IL
1100 AM CDT SAT JUN 24 2017

NOTE: "FAIR" INDICATES FEW OR NO CLOUDS BELOW 12,000 FEET WITH NO
SIGNIFICANT WEATHER AND/OR OBSTRUCTIONS TO VISIBILITY.

* THESE STATIONS ARE NOT UNDER NWS QUALITY CONTROL. THEY ALSO MAY NOT
  REPORT WEATHER SUCH AS PRECIPITATION OR FOG.

ILZ001-002-007-009-015-016-024-241700-
NORTHWEST ILLINOIS

CITY           SKY/WX    TMP DP  RH WIND       PRES   REMARKS
MOLINE         PTSUNNY   71  48  43 W15G24    30.06R
STERLING*      PTSUNNY   67  49  52 NW10      30.04R
SAVANNA*       MOSUNNY   70  49  46 W14       30.03R
$$

ILZ003-004-008-010-011-017-018-241700-
NORTH CENTRAL ILLINOIS

CITY           SKY/WX    TMP DP  RH WIND       PRES   REMARKS
ROCKFORD       PTSUNNY   70  51  51 NW15      30.01R
FREEPORT*      PTSUNNY   66  47  51 W13       30.03R
ROCHELLE*      PTSUNNY   67  52  58 NW16      30.02R
DE KALB*       MOSUNNY   68  52  56 NW16G22   30.01R
PERU*          MOSUNNY   67  46  45 NW17G25   30.04R
$$

ILZ005-006-012>014-019>023-241700-
NORTHEAST ILLINOIS

CITY           SKY/WX    TMP DP  RH WIND       PRES   REMARKS
CHICAGO-OHARE  PTSUNNY   72  53  51 W9G21     29.96R
CHICAGO-MIDWAY PTSUNNY   71  54  54 W15       29.96S
AURORA         PTSUNNY   68  54  60 W13       30.00R
LANSING*       PTSUNNY   69  53  55 W12       29.98R
JOLIET*        PTSUNNY   72  54  53 W10G18    30.00R
WAUKEGAN       MOSUNNY   70  55  59 VRB6      29.95R
DUPAGE AIRPORT PTSUNNY   69  55  60 W14       29.98R
WHEELING       PTSUNNY   69  56  62 NW12      29.97R
MORRIS*        MOSUNNY   71  53  53 W14       30.00R
ROMEOVILLE*    MOSUNNY   71  52  50 W12       29.99R
NORTHERLY ISL    N/A     68  49  50 W9          N/A
$$

LMZ740>746-241700-
SOUTHERN LAKE MICHIGAN

STATION/POSITION SKY/WX   TEMP    WIND        PRES    VSBY  WAVE
                          AIR SEA DIR/SP/G                  HT/PER
                          (F)     (DEG/KT/KT) (MB)    (MI)  (FT/S)
SOUTHERN BUOY              62 61  310/ 14/ 16 1013.0          3/ 5
WILMETTE HARBOR            66 65  290/  8/ 12   N/A           1/ 3
HARRISON CRIB              68     270/ 12/ 14   N/A
BURNHAM HARBOR             69                   N/A
CALUMET HARBOR             71     250/  4/ 11 1014.1R
BURNS HARBOR               66     300/  7/  9 1014.9S
MICHIGAN CITY              65     260/  9/ 10   N/A
MICHIGAN CITY 6N           66 68  290/ 10/ 12   N/A           2/ 5
ST. JOSEPH                 64 68  300/ 12/ 16 1014.9          4/ 5
$$

ILZ025>027-034>036-040-047-049-050-058-095>099-241700-
WEST-CENTRAL ILLINOIS

CITY           SKY/WX    TMP DP  RH WIND       PRES   REMARKS
QUINCY         MOSUNNY   71  49  45 NW12G23   30.14R
GALESBURG*     MOSUNNY   69  48  46 W13G22    30.10R
MACOMB*        MOSUNNY   70  47  44 W14G22    30.13R
JACKSONVILLE*  MOSUNNY   71  47  43 NW13G21   30.12R
PITTSFIELD*    MOSUNNY   72  48  42 NW13      30.15R
$$

ILZ028>032-037-038-041>044-048-051>054-059>061-241700-
CENTRAL ILLINOIS

CITY           SKY/WX    TMP DP  RH WIND       PRES   REMARKS
PONTIAC        PTSUNNY   70  56  62 W15       30.04R
BLOOMINGTON    MOSUNNY   71  52  50 NW16G25   30.07R
DECATUR        MOSUNNY   73  53  49 W13       30.07R
PEORIA         MOSUNNY   70  45  40 NW14G21   30.07R
LACON*         SUNNY     69  46  42 NW14G24   30.05R
LINCOLN*       PTSUNNY   72  53  50 NW7       30.07R
SPRINGFIELD    MOSUNNY   74  51  44 W16G24    30.09R
TAYLORVILLE    PTSUNNY   70  51  50 W13G18    30.09R
$$

ILZ033-039-045-046-055>057-062-063-241700-
EAST-CENTRAL ILLINOIS

CITY           SKY/WX    TMP DP  RH WIND       PRES   REMARKS
CHAMPAIGN      MOSUNNY   73  55  53 W14G22    30.04R
RANTOUL*       PTSUNNY   73  58  59 W15       30.04R
MATTOON        MOSUNNY   72  58  61 W16G22    30.06R
PARIS*         PTSUNNY   72  60  64 W15       30.05R
$$

ILZ079-100>102-241700-
SOUTHWEST ILLINOIS

CITY           SKY/WX    TMP DP  RH WIND       PRES   REMARKS
ALTON          MOSUNNY   70  54  56 NW15      30.12R
BELLEVILLE     MOSUNNY   75  48  38 W16       30.12R
CAHOKIA*       SUNNY     76  43  30 NW21      30.13R
SPARTA*        SUNNY     75  51  43 W13       30.12R
$$

ILZ064>066-069>071-074>076-080>082-084>086-088>090-092>094-241700-
SOUTH-CENTRAL ILLINOIS

CITY           SKY/WX    TMP DP  RH WIND       PRES   REMARKS
CARBONDALE     MOSUNNY   75  58  55 NW7       30.11R
CAIRO*         CLOUDY    75  60  59 N9        30.11R
EFFINGHAM*     MOSUNNY   73  58  59 W9        30.09R
MARION         MOSUNNY   73  57  56 NW7       30.11R
MT. VERNON     MOSUNNY   74  57  55 W9        30.10R
CENTRALIA*     MOSUNNY   75  56  51 W13G21    30.09R
SALEM*         MOSUNNY   74  56  52 W10G20    30.09R
METROPOLIS*    MOSUNNY   75  59  58 W9        30.11R
$$

ILZ067-068-072-073-078-083-087-091-241700-
SOUTHEAST ILLINOIS

CITY           SKY/WX    TMP DP  RH WIND       PRES   REMARKS
LAWRENCEVILLE  MOSUNNY   74  59  59 NW10      30.06R
FLORA*         MOSUNNY   76  56  49 W15       30.08R
FAIRFIELD*     MOSUNNY   74  56  54 W5        30.07S
HARRISBURG*    MOSUNNY   75  59  57 NW9G16    30.10R
ROBINSON*      SUNNY     73  58  60 NW9       30.06R
CARMI*         SUNNY     74  59  60 NW10      30.07S
$$

ABBREVIATIONS USED IN REMARKS
   TC - TEMPERATURE IN CELSIUS
  WCI - WIND CHILL INDEX
   HX - HEAT INDEX
  VSB - VISIBILITY
$$




USA.gov is the U.S. government's official web portal to all federal, state and local government web resources and services.